Estación Meteorológica de la Universidad de Murcia
Estación Meteorológica de la Universidad de Murcia
Universidad de Murcia
 

Temperatura y Humedad del sueloTemperatura y Humedad del suelo

 

Temperatura del suelo máxima: 32,4 ºC a las 12:49:00 del día 15/06/2021
Temperatura del suelo mínima: 18,8 ºC a las 03:43:00 del día 15/06/2021
Humedad del suelo máxima: 59,3 % a las 00:12:00 del día 15/06/2021
Humedad del suelo mínima: 57,6 % a las 07:17:00 del día 15/06/2021

||Temperatura del suelo máxima últimos meses|| ---- ||Temperatura del suelo mínima últimos meses||

----||Humedad del suelo máxima últimos meses|| ---- ||Humedad del suelo mínima últimos meses||


Temperatura del suelo máxima

  • 1 - 32,4 ºC del día 15/06/2021
  • 2 - 33 ºC del día 14/06/2021
  • 3 - 32,4 ºC del día 13/06/2021
  • 4 - 31,8 ºC del día 12/06/2021
  • 5 - 31,4 ºC del día 11/06/2021
  • 6 - 31,6 ºC del día 10/06/2021
  • 7 - 33,9 ºC del día 09/06/2021
  • 8 - 31,6 ºC del día 08/06/2021
  • 9 - 31,7 ºC del día 07/06/2021
  • 10 - 30,9 ºC del día 06/06/2021
  • 11 - 27 ºC del día 05/06/2021
  • 12 - 29 ºC del día 04/06/2021
  • 13 - 29 ºC del día 03/06/2021
  • 14 - 30,3 ºC del día 02/06/2021
  • 15 - 28,9 ºC del día 01/06/2021
  • 16 - 25 ºC del día 31/05/2021
  • 17 - 30 ºC del día 30/05/2021
  • 18 - 30,8 ºC del día 29/05/2021
  • 19 - 27,4 ºC del día 28/05/2021
  • 20 - 26,8 ºC del día 27/05/2021
  • 21 - 27,5 ºC del día 26/05/2021
  • 22 - 27,9 ºC del día 25/05/2021
  • 23 - 29 ºC del día 24/05/2021
  • 24 - 20,1 ºC del día 23/05/2021
  • 25 - 28,9 ºC del día 22/05/2021
  • 26 - 30,2 ºC del día 21/05/2021
  • 27 - 28,4 ºC del día 20/05/2021
  • 28 - 28,4 ºC del día 19/05/2021
  • 29 - 30,9 ºC del día 18/05/2021
  • 30 - 29,9 ºC del día 17/05/2021
  • 31 - 34,6 ºC del día 16/05/2021
  • 32 - 33,5 ºC del día 15/05/2021
  • 33 - 29,9 ºC del día 14/05/2021
  • 34 - 30,5 ºC del día 13/05/2021
  • 35 - 30,5 ºC del día 12/05/2021
  • 36 - 25,4 ºC del día 11/05/2021
  • 37 - 27,9 ºC del día 10/05/2021
  • 38 - 30,5 ºC del día 09/05/2021
  • 39 - 30 ºC del día 08/05/2021
  • 40 - 32,6 ºC del día 07/05/2021
  • 41 - 30,5 ºC del día 06/05/2021
  • 42 - 30,7 ºC del día 05/05/2021
  • 43 - 27,5 ºC del día 04/05/2021
  • 44 - 23,2 ºC del día 03/05/2021
  • 45 - 26,6 ºC del día 02/05/2021
  • 46 - 27 ºC del día 01/05/2021
  • 47 - 27,1 ºC del día 30/04/2021
  • 48 - 28,8 ºC del día 29/04/2021
  • 49 - 27,4 ºC del día 28/04/2021
  • 50 - 27,5 ºC del día 27/04/2021
  • 51 - 27,1 ºC del día 26/04/2021
  • 52 - 26 ºC del día 25/04/2021
  • 53 - 22,3 ºC del día 24/04/2021
  • 54 - 23,3 ºC del día 23/04/2021
  • 55 - 22,7 ºC del día 22/04/2021
  • 56 - 26,6 ºC del día 21/04/2021
  • 57 - 28,5 ºC del día 20/04/2021
  • 58 - 27 ºC del día 19/04/2021
  • 59 - 23,7 ºC del día 18/04/2021

||Volver al inicio de la página||


Temperatura del suelo mínima

  • 1 - 18,8 ºC del día 15/06/2021
  • 2 - 18 ºC del día 14/06/2021
  • 3 - 18,8 ºC del día 13/06/2021
  • 4 - 17,5 ºC del día 12/06/2021
  • 5 - 17,1 ºC del día 11/06/2021
  • 6 - 20,1 ºC del día 10/06/2021
  • 7 - 17,6 ºC del día 09/06/2021
  • 8 - 18 ºC del día 08/06/2021
  • 9 - 18,6 ºC del día 07/06/2021
  • 10 - 15,5 ºC del día 06/06/2021
  • 11 - 16,4 ºC del día 05/06/2021
  • 12 - 19 ºC del día 04/06/2021
  • 13 - 19,1 ºC del día 03/06/2021
  • 14 - 17,6 ºC del día 02/06/2021
  • 15 - 16,7 ºC del día 01/06/2021
  • 16 - 16,4 ºC del día 31/05/2021
  • 17 - 16,3 ºC del día 30/05/2021
  • 18 - 15,6 ºC del día 29/05/2021
  • 19 - 17 ºC del día 28/05/2021
  • 20 - 14,9 ºC del día 27/05/2021
  • 21 - 16,9 ºC del día 26/05/2021
  • 22 - 14,5 ºC del día 25/05/2021
  • 23 - 13,1 ºC del día 24/05/2021
  • 24 - 15 ºC del día 23/05/2021
  • 25 - 16,8 ºC del día 22/05/2021
  • 26 - 14,9 ºC del día 21/05/2021
  • 27 - 17,1 ºC del día 20/05/2021
  • 28 - 18 ºC del día 19/05/2021
  • 29 - 16,5 ºC del día 18/05/2021
  • 30 - 17,6 ºC del día 17/05/2021
  • 31 - 16,1 ºC del día 16/05/2021
  • 32 - 14,9 ºC del día 15/05/2021
  • 33 - 16 ºC del día 14/05/2021
  • 34 - 14,8 ºC del día 13/05/2021
  • 35 - 11,4 ºC del día 12/05/2021
  • 36 - 12,1 ºC del día 11/05/2021
  • 37 - 17,2 ºC del día 10/05/2021
  • 38 - 15,7 ºC del día 09/05/2021
  • 39 - 14,3 ºC del día 08/05/2021
  • 40 - 14,6 ºC del día 07/05/2021
  • 41 - 14,4 ºC del día 06/05/2021
  • 42 - 13 ºC del día 05/05/2021
  • 43 - 13,1 ºC del día 04/05/2021
  • 44 - 13,1 ºC del día 03/05/2021
  • 45 - 11,4 ºC del día 02/05/2021
  • 46 - 14,4 ºC del día 01/05/2021
  • 47 - 12,6 ºC del día 30/04/2021
  • 48 - 14,5 ºC del día 29/04/2021
  • 49 - 12,7 ºC del día 28/04/2021
  • 50 - 12,3 ºC del día 27/04/2021
  • 51 - 15,2 ºC del día 26/04/2021
  • 52 - 13,6 ºC del día 25/04/2021
  • 53 - 14 ºC del día 24/04/2021
  • 54 - 13,3 ºC del día 23/04/2021
  • 55 - 15 ºC del día 22/04/2021
  • 56 - 15 ºC del día 21/04/2021
  • 57 - 13,2 ºC del día 20/04/2021
  • 58 - 9,9 ºC del día 19/04/2021
  • 59 - 11,9 ºC del día 18/04/2021

||Volver al inicio de la página||


Humedad del suelo máxima

  • 1 - 59,3 % del día 15/06/2021
  • 2 - 59,9 % del día 14/06/2021
  • 3 - 61,1 % del día 13/06/2021
  • 4 - 61,4 % del día 12/06/2021
  • 5 - 62,3 % del día 11/06/2021
  • 6 - 63,6 % del día 10/06/2021
  • 7 - 64,8 % del día 09/06/2021
  • 8 - 66,2 % del día 08/06/2021
  • 9 - 68,2 % del día 07/06/2021
  • 10 - 74,2 % del día 06/06/2021
  • 11 - 76,9 % del día 05/06/2021
  • 12 - 61,8 % del día 04/06/2021
  • 13 - 61,5 % del día 03/06/2021
  • 14 - 61,9 % del día 02/06/2021
  • 15 - 62,1 % del día 01/06/2021
  • 16 - 63,1 % del día 31/05/2021
  • 17 - 63,6 % del día 30/05/2021
  • 18 - 64,2 % del día 29/05/2021
  • 19 - 64,3 % del día 28/05/2021
  • 20 - 65,4 % del día 27/05/2021
  • 21 - 66,9 % del día 26/05/2021
  • 22 - 69,5 % del día 25/05/2021
  • 23 - 76,4 % del día 24/05/2021
  • 24 - 76,4 % del día 23/05/2021
  • 25 - 58,9 % del día 22/05/2021
  • 26 - 58,9 % del día 21/05/2021
  • 27 - 59,3 % del día 20/05/2021
  • 28 - 59,5 % del día 19/05/2021
  • 29 - 59,9 % del día 18/05/2021
  • 30 - 60,2 % del día 17/05/2021
  • 31 - 61 % del día 16/05/2021
  • 32 - 61,8 % del día 15/05/2021
  • 33 - 62,7 % del día 14/05/2021
  • 34 - 64,1 % del día 13/05/2021
  • 35 - 65,7 % del día 12/05/2021
  • 36 - 70,2 % del día 11/05/2021
  • 37 - 74,5 % del día 10/05/2021
  • 38 - 59,5 % del día 09/05/2021
  • 39 - 59,9 % del día 08/05/2021
  • 40 - 60,4 % del día 07/05/2021
  • 41 - 61 % del día 06/05/2021
  • 42 - 61,7 % del día 05/05/2021
  • 43 - 62,3 % del día 04/05/2021
  • 44 - 63,6 % del día 03/05/2021
  • 45 - 64,1 % del día 02/05/2021
  • 46 - 64,8 % del día 01/05/2021
  • 47 - 66,2 % del día 30/04/2021
  • 48 - 68 % del día 29/04/2021
  • 49 - 70,4 % del día 28/04/2021
  • 50 - 76,7 % del día 27/04/2021
  • 51 - 64,9 % del día 26/04/2021
  • 52 - 64,9 % del día 25/04/2021
  • 53 - 66,2 % del día 24/04/2021
  • 54 - 67,4 % del día 23/04/2021
  • 55 - 70,3 % del día 22/04/2021
  • 56 - 76,2 % del día 21/04/2021
  • 57 - 78 % del día 20/04/2021
  • 58 - 59,4 % del día 19/04/2021
  • 59 - 59,6 % del día 18/04/2021

||Volver al inicio de la página||


Humedad del suelo mínima

  • 1 - 57,6 % del día 15/06/2021
  • 2 - 58,2 % del día 14/06/2021
  • 3 - 58,5 % del día 13/06/2021
  • 4 - 59,1 % del día 12/06/2021
  • 5 - 59,1 % del día 11/06/2021
  • 6 - 61,2 % del día 10/06/2021
  • 7 - 62,3 % del día 09/06/2021
  • 8 - 63,7 % del día 08/06/2021
  • 9 - 65,2 % del día 07/06/2021
  • 10 - 67,1 % del día 06/06/2021
  • 11 - 58,8 % del día 05/06/2021
  • 12 - 59,1 % del día 04/06/2021
  • 13 - 59,7 % del día 03/06/2021
  • 14 - 60,3 % del día 02/06/2021
  • 15 - 60,4 % del día 01/06/2021
  • 16 - 61 % del día 31/05/2021
  • 17 - 61,7 % del día 30/05/2021
  • 18 - 62,4 % del día 29/05/2021
  • 19 - 62,9 % del día 28/05/2021
  • 20 - 63,2 % del día 27/05/2021
  • 21 - 64,4 % del día 26/05/2021
  • 22 - 65,8 % del día 25/05/2021
  • 23 - 68,4 % del día 24/05/2021
  • 24 - 56,8 % del día 23/05/2021
  • 25 - 56,8 % del día 22/05/2021
  • 26 - 56,5 % del día 21/05/2021
  • 27 - 57,4 % del día 20/05/2021
  • 28 - 57,7 % del día 19/05/2021
  • 29 - 57 % del día 18/05/2021
  • 30 - 58,3 % del día 17/05/2021
  • 31 - 59,1 % del día 16/05/2021
  • 32 - 59,8 % del día 15/05/2021
  • 33 - 60,6 % del día 14/05/2021
  • 34 - 61,6 % del día 13/05/2021
  • 35 - 62,9 % del día 12/05/2021
  • 36 - 64,6 % del día 11/05/2021
  • 37 - 57,4 % del día 10/05/2021
  • 38 - 57,6 % del día 09/05/2021
  • 39 - 58,1 % del día 08/05/2021
  • 40 - 58,8 % del día 07/05/2021
  • 41 - 59,3 % del día 06/05/2021
  • 42 - 59,9 % del día 05/05/2021
  • 43 - 60,6 % del día 04/05/2021
  • 44 - 61,1 % del día 03/05/2021
  • 45 - 62 % del día 02/05/2021
  • 46 - 62,9 % del día 01/05/2021
  • 47 - 63,7 % del día 30/04/2021
  • 48 - 65 % del día 29/04/2021
  • 49 - 66,9 % del día 28/04/2021
  • 50 - 63,1 % del día 27/04/2021
  • 51 - 62,9 % del día 26/04/2021
  • 52 - 63,1 % del día 25/04/2021
  • 53 - 63,8 % del día 24/04/2021
  • 54 - 65 % del día 23/04/2021
  • 55 - 66,3 % del día 22/04/2021
  • 56 - 65,5 % del día 21/04/2021
  • 57 - 57,4 % del día 20/04/2021
  • 58 - 57,6 % del día 19/04/2021
  • 59 - 58 % del día 18/04/2021

 

|| Temperatura Ambiente|| Humedad relativa|| Velocidad y dirección del viento|| Precipitación|| Radiación Solar Global y PAR|| Presión atmosférica|| Más información|| Volver a la página principal|| Volver al inicio de la página||


Estación Meteorológica de la Universidad de Murcia
http://estacion.um.es/
Informacion actualizada a: 17/06/2021 a las 22:03:00